Location: Newark
(13.6797°N, 8.5297°E)
Time: 01:09:01
(UTC+00:00)

Courier 1B Rocket - Pass Details

Date: 22 January 2020
Orbit: 920 x 1202 km, 28.2° (Epoch: 27 February)

Event Time Altitude Azimuth Distance (km) Brightness Sun altitude
Rises 19:34:25 0° 283° (WNW) 3,544 8.8 -31.8°
Reaches altitude 10° 19:37:12 10° 274° (W) 2,608 8.0 -32.4°
Maximum altitude 19:42:49 35° 210° (SSW) 1,461 6.1 -33.7°
Enters shadow 19:43:54 33° 189° (S) 1,527 6.1 -34.0°
